Zurück zum Katalog

OPS 4682 DEB

AktivPO
NORAD 38454·DEBRIS·🇺🇸 United States

Gestartet Apr 3, 1965 von Vandenberg Space Force Base

Loading…

Nächste Überflüge (nächste 24 Stunden)

TLE

AktuellSource: Space-Track

Epoche: Sep 12, 2026, 18:40 UTC

1 38454U 65027FK  26255.77779690  .00000345  00000-0  11973-2 0  9991
2 38454  90.2496   9.0242 0033073 347.7129  12.3180 12.95349701593948

Verfolge OPS 4682 DEB in Echtzeit mit AllMySat

Download on the App Store